Regional Weather Roundup
Issued by NWS

Home | Current Version | Previous Version | Text Only | Print | Product List | Glossary On
Versions: 1 2 3 4 5 6 7 8 9 10 11 12 13 14 15 16 17 18 19 20 21 22 23 24 25 26 27 28 29 30 31 32 33 34 35 36 37 38 39 40 41 42 43 44 45 46 47 48 49 50
000
ASUS43 KBIS 130020
RWRND

NORTH DAKOTA REGIONAL WEATHER ROUNDUP
NATIONAL WEATHER SERVICE BISMARCK ND
700 PM CDT SAT JUL 12 2014

NOTE: "FAIR" INDICATES FEW OR NO CLOUDS BELOW 12,000 FEET WITH NO
SIGNIFICANT WEATHER AND/OR OBSTRUCTIONS TO VISIBILITY.


NDZ001>003-009>011-017-130100-
NORTHWEST NORTH DAKOTA

CITY           SKY/WX    TMP DP  RH WIND       PRES   REMARKS
WILLISTON      SUNNY     83  48  29 NW22G28   30.07S
6HR MIN TEMP:  79; 6HR MAX TEMP:  86;

$$

NDZ018>021-031>035-040>046-130100-
SOUTHWEST NORTH DAKOTA

CITY           SKY/WX    TMP DP  RH WIND       PRES   REMARKS
BISMARCK       SUNNY     80  57  45 NW13G22   30.03R
6HR MIN TEMP:  77; 6HR MAX TEMP:  85;

DICKINSON      MOSUNNY   79  53  40 NW13      30.08S
GARRISON         N/A     77  55  46 W13G21    30.02F
6HR MIN TEMP:  74; 6HR MAX TEMP:  80;

HETTINGER ARPT SUNNY     81  55  40 NW12      30.11F
$$

NDZ004>008-012>016-024-026-027-054-130100-
NORTHEAST NORTH DAKOTA

CITY           SKY/WX    TMP DP  RH WIND       PRES   REMARKS
GRAND FORKS    LGT RAIN  68  54  60 N23G41    29.92R
DEVILS LAKE    CLOUDY    61  54  77 N13       29.96R
$$

NDZ022-023-025-028>030-036>039-047>053-130100-
SOUTHEAST NORTH DAKOTA

CITY           SKY/WX    TMP DP  RH WIND       PRES   REMARKS
FARGO          MOSUNNY   81  56  42 W14       29.91F
6HR MIN TEMP:  75; 6HR MAX TEMP:  82;

JAMESTOWN      SUNNY     78  55  44 NW18G28   29.96S
$$



USA.gov is the U.S. government's official web portal to all federal, state and local government web resources and services.